Time,TemperatureF,DewpointF,PressureIn,WindDirection,WindDirectionDegrees,WindSpeedMPH,WindSpeedGustMPH,Humidity,HourlyPrecipIn,Conditions,Clouds,dailyrainin,SoftwareType,DateUTC
2013-03-09 00:00:00,44.0,-50.9,29.87,SE,135,0.0,0.0,1,0.00,,,0.00,Weather View 32 v70,2013-03-09 08:00:00,
2013-03-09 00:30:00,44.0,-50.9,29.87,ESE,112,0.0,0.0,1,0.00,,,0.00,Weather View 32 v70,2013-03-09 08:30:00,
2013-03-09 01:00:00,44.0,-50.9,29.89,ENE,67,0.0,2.0,1,0.00,,,0.00,Weather View 32 v70,2013-03-09 09:00:00,
2013-03-09 01:30:00,44.0,-50.9,29.89,ENE,67,0.0,2.0,1,0.00,,,0.00,Weather View 32 v70,2013-03-09 09:30:00,
2013-03-09 02:00:00,45.0,-50.3,29.89,ENE,67,2.0,3.0,1,0.00,,,0.00,Weather View 32 v70,2013-03-09 10:00:00,
2013-03-09 02:30:00,45.0,-50.3,29.89,ENE,67,0.0,3.0,1,0.00,,,0.00,Weather View 32 v70,2013-03-09 10:30:00,
2013-03-09 03:00:00,45.0,-50.3,29.90,ENE,67,0.0,3.0,1,0.00,,,0.00,Weather View 32 v70,2013-03-09 11:00:00,
2013-03-09 03:30:00,45.0,-50.3,29.90,North,360,0.0,0.0,1,0.00,,,0.00,Weather View 32 v70,2013-03-09 11:30:00,
2013-03-09 04:00:00,45.0,-50.3,29.91,North,360,0.0,0.0,1,0.00,,,0.00,Weather View 32 v70,2013-03-09 12:00:00,
2013-03-09 04:30:00,45.0,-50.3,29.92,NW,315,0.0,2.0,1,0.00,,,0.00,Weather View 32 v70,2013-03-09 12:30:00,
2013-03-09 05:00:00,45.0,-50.3,29.94,NW,315,2.0,4.0,1,0.00,,,0.00,Weather View 32 v70,2013-03-09 13:00:00,
2013-03-09 05:30:00,45.0,-50.3,29.95,WNW,292,0.0,4.0,1,0.00,,,0.00,Weather View 32 v70,2013-03-09 13:30:00,
2013-03-09 06:00:00,45.0,-50.3,29.96,WNW,292,0.0,3.0,1,0.00,,,0.00,Weather View 32 v70,2013-03-09 14:00:00,
2013-03-09 06:30:00,46.0,-49.6,29.98,WNW,292,0.0,0.0,1,0.00,,,0.00,Weather View 32 v70,2013-03-09 14:30:00,
2013-03-09 07:00:00,46.0,-49.6,29.99,WNW,292,0.0,0.0,1,0.00,,,0.00,Weather View 32 v70,2013-03-09 15:00:00,
2013-03-09 07:30:00,46.0,-49.6,30.01,WNW,292,0.0,0.0,1,0.00,,,0.00,Weather View 32 v70,2013-03-09 15:30:00,
2013-03-09 08:00:00,46.0,-49.6,30.02,WNW,292,0.0,1.0,1,0.00,,,0.00,Weather View 32 v70,2013-03-09 16:00:00,
2013-03-09 08:30:00,47.0,-49.0,30.04,NE,45,1.0,3.0,1,0.00,,,0.00,Weather View 32 v70,2013-03-09 16:30:00,
2013-03-09 09:00:00,47.0,-49.0,30.05,NNW,337,3.0,6.0,1,0.00,,,0.00,Weather View 32 v70,2013-03-09 17:00:00,
2013-03-09 09:30:00,49.0,-47.8,30.06,NW,315,0.0,9.0,1,0.00,,,0.00,Weather View 32 v70,2013-03-09 17:30:00,
2013-03-09 09:35:00,49.0,-47.8,30.06,NW,315,0.0,9.0,1,0.00,,,0.00,Weather View 32 v70,2013-03-09 17:35:00,
2013-03-09 10:00:00,50.0,30.5,30.07,WNW,292,6.0,9.0,47,0.00,,,0.00,Weather View 32 v70,2013-03-09 18:00:00,
2013-03-09 10:30:00,51.0,40.4,30.09,NW,315,2.0,9.0,67,0.00,,,0.00,Weather View 32 v70,2013-03-09 18:30:00,
2013-03-09 10:36:00,51.0,40.4,30.09,NW,315,2.0,9.0,67,0.00,,,0.00,Weather View 32 v70,2013-03-09 18:36:00,
2013-03-09 11:00:00,52.0,43.2,30.10,NNW,337,0.0,9.0,72,0.00,,,0.00,Weather View 32 v70,2013-03-09 19:00:00,
2013-03-09 11:30:00,52.0,45.3,30.12,WSW,247,3.0,9.0,78,0.00,,,0.00,Weather View 32 v70,2013-03-09 19:30:00,
2013-03-09 11:36:00,52.0,45.3,30.12,WSW,247,3.0,9.0,78,0.00,,,0.00,Weather View 32 v70,2013-03-09 19:36:00,
2013-03-09 12:00:00,52.0,46.0,30.12,SW,225,2.0,8.0,80,0.00,,,0.00,Weather View 32 v70,2013-03-09 20:00:00,
2013-03-09 12:30:00,54.0,47.6,30.12,WNW,292,4.0,7.0,79,0.00,,,0.00,Weather View 32 v70,2013-03-09 20:30:00,
2013-03-09 12:37:00,54.0,47.6,30.12,WNW,292,4.0,7.0,79,0.00,,,0.00,Weather View 32 v70,2013-03-09 20:37:00,
2013-03-09 13:00:00,55.0,50.2,30.12,NW,315,0.0,7.0,84,0.00,,,0.00,Weather View 32 v70,2013-03-09 21:00:00,
2013-03-09 13:30:00,56.0,51.2,30.12,SSW,202,0.0,7.0,84,0.00,,,0.00,Weather View 32 v70,2013-03-09 21:30:00,
2013-03-09 13:37:00,56.0,51.2,30.12,SSW,202,0.0,7.0,84,0.00,,,0.00,Weather View 32 v70,2013-03-09 21:37:00,
2013-03-09 14:00:00,56.0,51.2,30.13,South,180,3.0,9.0,84,0.00,,,0.00,Weather View 32 v70,2013-03-09 22:00:00,
2013-03-09 14:30:00,58.0,52.5,30.14,WNW,292,0.0,9.0,82,0.00,,,0.00,Weather View 32 v70,2013-03-09 22:30:00,
2013-03-09 14:38:00,58.0,52.5,30.14,WNW,292,0.0,9.0,82,0.00,,,0.00,Weather View 32 v70,2013-03-09 22:38:00,
2013-03-09 15:00:00,61.0,55.5,30.15,SSW,202,0.0,8.0,82,0.00,,,0.00,Weather View 32 v70,2013-03-09 23:00:00,
2013-03-09 15:30:00,56.0,50.6,30.14,ESE,112,0.0,8.0,82,0.00,,,0.00,Weather View 32 v70,2013-03-09 23:30:00,
2013-03-09 15:38:00,56.0,50.6,30.14,ESE,112,0.0,8.0,82,0.00,,,0.00,Weather View 32 v70,2013-03-09 23:38:00,
2013-03-09 16:00:00,57.0,51.5,30.14,South,180,0.0,7.0,82,0.00,,,0.00,Weather View 32 v70,2013-03-10 00:00:00,
2013-03-09 16:30:00,59.0,52.8,30.15,South,180,2.0,7.0,80,0.00,,,0.00,Weather View 32 v70,2013-03-10 00:30:00,
2013-03-09 16:39:00,59.0,52.8,30.15,South,180,2.0,7.0,80,0.00,,,0.00,Weather View 32 v70,2013-03-10 00:39:00,
2013-03-09 17:00:00,58.0,51.2,30.15,SW,225,0.0,7.0,78,0.00,,,0.00,Weather View 32 v70,2013-03-10 01:00:00,
2013-03-09 17:30:00,57.0,50.9,30.14,SE,135,0.0,7.0,80,0.00,,,0.00,Weather View 32 v70,2013-03-10 01:30:00,
2013-03-09 17:39:00,57.0,50.9,30.14,SE,135,0.0,7.0,80,0.00,,,0.00,Weather View 32 v70,2013-03-10 01:39:00,
2013-03-09 18:00:00,55.0,50.9,30.14,SSW,202,0.0,7.0,86,0.00,,,0.00,Weather View 32 v70,2013-03-10 02:00:00,
2013-03-09 18:30:00,54.0,46.2,30.14,SE,135,3.0,6.0,75,0.00,,,0.00,Weather View 32 v70,2013-03-10 02:30:00,
2013-03-09 19:00:00,53.0,45.6,30.14,SSE,157,3.0,6.0,76,0.00,,,0.00,Weather View 32 v70,2013-03-10 03:00:00,
2013-03-09 19:30:00,53.0,45.3,30.14,SSW,202,1.0,6.0,75,0.00,,,0.00,Weather View 32 v70,2013-03-10 03:30:00,
2013-03-09 20:00:00,52.0,44.3,30.14,South,180,2.0,6.0,75,0.00,,,0.00,Weather View 32 v70,2013-03-10 04:00:00,
2013-03-09 20:30:00,52.0,45.0,30.15,SSW,202,0.0,7.0,77,0.00,,,0.00,Weather View 32 v70,2013-03-10 04:30:00,
2013-03-09 21:00:00,51.0,43.0,30.15,SSE,157,3.0,8.0,74,0.00,,,0.00,Weather View 32 v70,2013-03-10 05:00:00,
2013-03-09 21:30:00,51.0,41.5,30.15,SSE,157,4.0,10.0,70,0.00,,,0.00,Weather View 32 v70,2013-03-10 05:30:00,
2013-03-09 22:00:00,49.0,24.5,30.14,SSE,157,3.0,10.0,38,0.00,,,0.00,Weather View 32 v70,2013-03-10 06:00:00,
2013-03-09 22:30:00,48.0,20.9,30.14,SSW,202,0.0,10.0,34,0.00,,,0.00,Weather View 32 v70,2013-03-10 06:30:00,
2013-03-09 23:00:00,48.0,8.8,30.15,South,180,0.0,7.0,20,0.00,,,0.00,Weather View 32 v70,2013-03-10 07:00:00,
2013-03-09 23:30:00,47.0,-49.0,30.14,SSE,157,2.0,6.0,1,0.00,,,0.00,Weather View 32 v70,2013-03-10 07:30:00,